Showing default

SHARJAHSAT-2, 68444

Orbit data source: Space-Track

SHARJAHSAT-2, 68444 is a payload satellite owned by Sharjah SAAST (AE) in SSO that was launched on Mon, 30 Mar 2026 UTC via an FALCON 9 launch vehicle from the Air Force Western Test Range (AFWTR). Payload-class satellites include a variety of spacecraft equipped with specific instruments for various scientific and technological missions. These include communications satellites like Starlink; space stations such as the ISS; scientific satellites like the Hubble; Earth observation satellites from companies like Planet Labs, Umbra, and HawkEye 360; GPS; miniature CubeSats for education and research; and military/defense satellites.

Loading next visibility...
Identifier
68444, 2026-067AE
Orbit
SSO
Country
Flag of AEAE / UAE
Related business
Manufacturer
Sharjah SAAST
Mission
Operational spacecraft
Bus & Motor
CUBESAT 6U, Unknown motor
Mass
~10 kg wet, ~10 kg dry
Launch date (UTC)
2026-03-30 (3 months ago)
Launch vehicle
FALCON 9
Launch site
Air Force Western Test Range (AFWTR)
Object type
Payload
Rocket body
Debris
Shape & HBR
Unknown shape, 0.1 m
Radar Cross Section
Medium (>0.1 m² and <1 m²)

Expand to show TLE details & history
Last TLE update: 2 days ago

TLE from 2 days ago
0 SHARJAHSAT-2
1 68444U 26067AE  26171.34790653  .00005451  00000-0  26417-3 0  9999
2 68444  97.4574 129.8495 0001845  46.1197 314.0190 15.18940213 12429
Epoch: 2026-06-20T08:20Z
TLE epoch observation values (Epoch: 2026-06-20T08:20:59.124Z)
Latitude
0.00004°
Longitude
96.03932°
Altitude
511.247 km
Speed
7.609 km/s
True Right ascension
08h 39m 23s
True Declination
0° 00' 00"
Sunlit
Object was in daylight at epoch
Visualization orbit readout
Latitude
Unknown
Longitude
Unknown
Altitude
Unknown
Speed
Unknown
Apparent Right ascension
Unknown
Apparent Declination
Unknown
Sunlit
N/A
Visualization observer readout
Local Sidereal Time
15:21:27
Azimuth
Unknown
Elevation
Unknown
Doppler factor
Unknown
Orbital elements
Apogee altitude
507.282 km
Perigee altitude
504.742 km
Semi-major axis
6,884.149 km
Eccentricity
0.00018
Inclination
97.4574°
RAAN
129.8495°
Arg. of periapsis
46.1197°
True anomaly
314.00379°
Mean anomaly
314.019°
Eccentric anomaly
314.0114°
Mean motion
3.79986 °/min
Orbital period
94.74 mins
BSTAR
0.00026417
Loading maneuver chart data...
Computing Atmospheric mass density...
Loading historical data...
Loading historical data...
Loading historical data...
Loading historical data...
Loading historical data...
Loading historical data...
Loading historical data...

Documentation

Showing up to 5 results
|